[[{"header":{"parameterUnit":"m.s-1","parameterCategory":1,"la1":30.2992,"la2":30.254,"lo1":-89.0895,"lo2":-89.0443,"dy":0.0025,"dx":0.0025,"nx":19,"ny":19,"refTime":"2026-03-31T21:00:00:Z","depth":0,"parameterNumber":2,"parameterNumberName":"U-component_of_WINDS"},"data":[0,0,0,-2.7593,-2.7594,-2.7638,-2.7638,-2.7703,-2.7704,0,0,0,0,0,0,0,0,0,0,0,-2.7586,-2.7587,-2.7593,-2.7594,-2.7638,-2.7638,-2.7703,-2.7704,0,0,0,0,0,0,0,0,0,0,0,-2.7586,-2.7587,-2.7587,-2.7594,-2.7638,-2.7638,-2.7703,-2.7667,0,0,0,0,0,0,0,0,0,0,-2.7623,-2.7622,-2.7586,-2.7588,-2.7595,-2.7638,-2.7638,-2.7665,-2.7669,-2.7688,0,-2.7707,0,-2.7706,-2.7709,-2.7709,0,0,0,-2.759,-2.7619,-2.7625,-2.7588,-2.7595,-2.7638,-2.7617,-2.7667,-2.7672,-2.7694,-2.7707,-2.771,-2.7708,-2.771,-2.771,-2.7834,-2.7835,0,0,-2.7587,-2.7597,-2.7622,-2.7629,-2.7623,-2.7615,-2.7618,-2.767,-2.7685,-2.7708,-2.7711,-2.7709,-2.771,-2.7711,-2.7833,-2.7834,0,0,0,-2.7583,-2.7596,-2.7601,-2.7626,-2.7633,-2.7617,-2.762,-2.7683,-2.7684,-2.7712,-2.7709,-2.7711,-2.7712,-2.7832,-2.7834,-2.7881,0,0,0,-2.7582,-2.7594,-2.76,-2.7606,-2.7633,-2.7659,-2.7632,-2.768,-2.7686,-2.7709,-2.7711,-2.7712,-2.7831,-2.7833,-2.7878,-2.7901,0,0,0,-2.7581,-2.7593,-2.7602,-2.7607,-2.7626,-2.7658,-2.7661,-2.7681,-2.7685,-2.771,-2.7712,-2.7831,-2.7833,-2.7875,-2.7896,-2.7935,0,0,0,-2.7584,-2.7645,-2.7603,-2.767,-2.7626,-2.7687,-2.7661,-2.7706,-2.7733,-2.7711,-2.7832,-2.7833,-2.7874,-2.7894,-2.7932,-2.7968,-2.7984,0,0,-2.7666,-2.7655,-2.7693,-2.7657,-2.7729,-2.768,-2.7758,-2.7774,-2.7768,-2.7812,-2.7815,-2.7879,-2.7896,-2.7934,-2.8077,-2.809,0,0,0,-2.7723,-2.775,-2.7767,-2.7793,-2.7807,-2.7819,-2.7822,-2.7827,-2.7865,-2.7793,-2.7904,-2.7914,-2.7936,-2.7953,-2.7964,-2.7981,-2.7842,-2.7842,-2.7842,-2.7853,-2.7841,-2.7903,-2.7896,-2.7922,-2.7924,-2.7943,-2.7951,-2.7932,-2.7959,-2.7971,-2.8059,-2.8079,-2.8087,-2.8105,-2.7991,-2.7991,-2.7992,-2.7992,-2.797,-2.8006,-2.798,-2.803,-2.8017,-2.806,-2.8064,-2.805,-2.8087,-2.8049,-2.8068,-2.8025,-2.8102,-2.8117,-2.7995,-2.7995,-2.7994,-2.7994,-2.7994,-2.8052,-2.8067,-2.8073,-2.8109,-2.8138,-2.8129,-2.8166,-2.8154,-2.8142,-2.8161,-2.8171,-2.8171,-2.8166,-2.8167,-2.8168,-2.8168,-2.8168,-2.8169,-2.8169,-2.8133,-2.8139,-2.8171,-2.819,-2.8204,-2.8222,-2.8224,-2.8238,-2.825,-2.8238,-2.8238,-2.8216,-2.8113,-2.8085,-2.8173,-2.8172,-2.8172,-2.8171,-2.8171,-2.8253,-2.8224,-2.8274,-2.8288,-2.8309,-2.8337,-2.8322,-2.8351,-2.8361,-2.8379,-2.8353,-2.828,-2.8267,-2.8258,-2.8235,-2.8357,-2.8357,-2.8357,-2.8357,-2.832,-2.8313,-2.836,-2.8384,-2.8406,-2.8397,-2.8452,-2.8455,-2.8453,-2.8459,-2.844,-2.841,-2.8401,-2.8394,-2.8382,-2.836,-2.851,-2.8511,-2.8511,-2.8392,-2.8387,-2.8436,-2.8434,-2.8449,-2.8462,-2.8513,-2.8542,-2.8534,-2.8517,-2.8462,-2.8455,-2.8406,-2.8392,-2.8371,-2.8353,-2.8313,0,0]},{"header":{"parameterUnit":"m.s-1","parameterCategory":1,"la1":30.2992,"la2":30.254,"lo1":-89.0895,"lo2":-89.0443,"dy":0.0025,"dx":0.0025,"nx":19,"ny":19,"refTime":"2026-03-31T21:00:00:Z","depth":0,"parameterNumber":3,"parameterNumberName":"V-component_of_WINDS"},"data":[0,0,0,1.6163,1.6166,1.632,1.632,1.6512,1.6514,0,0,0,0,0,0,0,0,0,0,0,1.6112,1.6113,1.6163,1.6166,1.632,1.632,1.6512,1.6514,0,0,0,0,0,0,0,0,0,0,0,1.6111,1.6113,1.6114,1.6167,1.6319,1.632,1.6511,1.6398,0,0,0,0,0,0,0,0,0,0,1.625,1.6197,1.6112,1.6114,1.6168,1.6319,1.632,1.6393,1.6405,1.644,0,1.6467,0,1.6493,1.6526,1.6527,0,0,0,1.6171,1.6186,1.6232,1.6114,1.6169,1.6319,1.6252,1.64,1.6414,1.6456,1.6469,1.6477,1.6496,1.6527,1.6528,1.6708,1.6708,0,0,1.6163,1.6137,1.6223,1.6241,1.6214,1.6247,1.6257,1.6408,1.6422,1.647,1.6481,1.6499,1.6528,1.653,1.6707,1.6708,0,0,0,1.6135,1.6131,1.6174,1.6233,1.6261,1.6251,1.6262,1.6415,1.6431,1.6484,1.6502,1.653,1.6532,1.6706,1.6707,1.6713,0,0,0,1.613,1.6115,1.617,1.6155,1.6258,1.6339,1.6266,1.6421,1.6439,1.6501,1.653,1.6534,1.6706,1.6707,1.6711,1.672,0,0,0,1.6104,1.6112,1.6132,1.6154,1.6218,1.6337,1.6362,1.6425,1.645,1.6527,1.6534,1.6705,1.6707,1.671,1.6718,1.6761,0,0,0,1.6069,1.6134,1.6131,1.6212,1.6217,1.6338,1.6362,1.6454,1.652,1.6531,1.6706,1.6707,1.6709,1.6717,1.676,1.6794,1.6806,0,0,1.6137,1.6141,1.6191,1.6193,1.6308,1.6317,1.6434,1.6521,1.6553,1.6655,1.666,1.6712,1.6718,1.6761,1.6875,1.6884,0,0,0,1.6204,1.6239,1.6275,1.6337,1.6403,1.6463,1.6533,1.6566,1.6654,1.6599,1.6739,1.6743,1.677,1.6788,1.6796,1.6821,1.6714,1.6714,1.6713,1.6264,1.63,1.6386,1.6441,1.6501,1.6574,1.6627,1.6684,1.6703,1.6736,1.6767,1.6832,1.6852,1.6857,1.6884,1.6787,1.6787,1.6787,1.6787,1.6369,1.6426,1.645,1.6542,1.6581,1.666,1.6734,1.6746,1.6827,1.6811,1.6836,1.6817,1.6866,1.6891,1.6788,1.6788,1.6788,1.6788,1.6787,1.6414,1.6448,1.6485,1.6579,1.6649,1.6703,1.678,1.6813,1.6845,1.687,1.6909,1.6909,1.6915,1.6886,1.6886,1.6886,1.6886,1.6886,1.6887,1.6446,1.6488,1.6548,1.6625,1.667,1.6734,1.6809,1.6856,1.6916,1.6935,1.6936,1.6954,1.6862,1.684,1.689,1.689,1.6889,1.6889,1.6889,1.6542,1.6526,1.6617,1.6663,1.6758,1.6826,1.6867,1.696,1.7003,1.7041,1.7054,1.698,1.6988,1.6982,1.6964,1.7043,1.7043,1.7043,1.7043,1.6582,1.6588,1.6691,1.6761,1.6834,1.6881,1.6988,1.7048,1.7109,1.7139,1.7132,1.711,1.7103,1.7115,1.7107,1.709,1.72,1.72,1.7201,1.6645,1.666,1.6742,1.6799,1.6876,1.6943,1.7045,1.7128,1.7194,1.7208,1.7164,1.7157,1.7122,1.7109,1.7123,1.7109,1.7079,0,0]}]]